www.pogodaiklimat.ru

Погода и климат >> Архив погоды >> Индонезия >> Банджармасин


ПОГОДА в Банджармасине

  • Прогноз погоды в Банджармасине
  • Монитор погоды в Банджармасине

АРХИВ ПОГОДЫ в Банджармасине

Время (UTC), дата Ветер
(напр.,м/с)
 
Видим.   Явления Облачность Т
(С)
Тd
(С)
f
(%)
Тe
(С)
Тes
(С)
Комфортность P
(гПа)
Po
(гПа)
Тmin
(С)
Tmax
(С)
R
(мм)
R24
(мм)
S
(см)
00 19.08 С 1 7000 м 8/3 600 м
[Sc As trans Ci fib]
+25.6 +22.8 85 +34 +36 очень
душно
1013.0 1010.9 +22.6
03 19.08 ЮВ 3 10 км 8/4 600 м
[Cu Sc As trans Ci fib]
+31.0 +22.4 60 +40 +47 очень
душно
1012.4 1010.3
06 19.08 ЮВ 2 10 км 6/3 600 м
[Sc As trans Ci fib]
+31.8 +22.4 58 +41 +51 опасность
перегрева
1009.3 1007.2
09 19.08 Ю 2 10 км 8/1 600 м
[Sc As trans Ci fib]
+30.4 +22.5 63 +40 +41 очень
душно
1008.1 1006.0
12 19.08 Ю 2 9000 м 6/0
[As trans Ci fib]
+27.2 +22.4 75 +36 +36 очень
душно
1011.0 1008.9 +32.8
15 19.08 Ю 1 9000 м 5/0
[As trans Ci fib]
+26.0 +22.3 80 +34 +34 очень
душно
1012.9 1010.7
18 19.08 штиль 0 9000 м 5/0
[As trans Ci fib]
+25.2 +22.1 83 +33 +33 очень
душно
1011.7 1009.6
21 19.08 штиль 0 8000 м 5/0
[As trans Ci fib]
+24.8 +22.3 86 +32 +32 очень
душно
1011.1 1008.9
00 20.08 ЮЗ 2 9000 м 4/0
[Ac trans Ci fib]
+26.6 +22.5 78 +35 +38 очень
душно
1012.6 1010.5 +24.7
03 20.08 В 6 10 км мгла 6/4 600 м
[Sc As trans Ci fib]
+32.4 +20.8 50 +39 +43 очень
душно
1012.2 1010.0
06 20.08 ЮВ 5 10 км 6/4 600 м
[Sc As trans Ci fib]
+33.4 +21.7 50 +41 +46 опасность
перегрева
1009.9 1007.7
09 20.08 В 6 10 км 5/3 600 м
[Sc As trans Ci fib]
+33.4 +21.7 50 +41 +42 опасность
перегрева
1008.9 1006.8
12 20.08 В 4 10 км 5/3 600 м
[Sc As trans Ci fib]
+28.4 +21.8 67 +36 +36 очень
душно
1011.0 1008.9 +34.2
15 20.08 В 3 10 км 5/3 600 м
[Sc As trans Ci fib]
+26.6 +22.1 76 +34 +34 очень
душно
1010.8 1008.7
18 20.08 штиль 0 10 км 5/3 600 м
[Sc As trans Ci fib]
+25.0 +20.7 77 +31 +31 очень
душно
1009.5 1007.3
21 20.08 штиль 0 8000 м 5/3 600 м
[Sc As trans Ci fib]
+23.9 +21.2 85 +30 +30 очень
душно
1009.1 1007.0
00 21.08 СВ 2 10 км 4/0
[Ac trans Ci fib]
+25.4 +22.3 83 +33 +36 очень
душно
1010.8 1008.7 +23.2
03 21.08 В 8 10 км 5/4 600 м
[Sc Ac trans Ci fib]
+31.8 +21.4 54 +40 +42 очень
душно
1009.9 1007.8
06 21.08 В 6 10 км 6/4 600 м
[Cu Sc As trans Ci fib]
+34.2 +21.0 46 +41 +45 опасность
перегрева
1007.3 1005.2
09 21.08 В 6 10 км 6/4 600 м
[Sc As trans Ci fib]
+34.0 +21.1 47 +41 +42 опасность
перегрева
1006.7 1004.6
12 21.08 ЮВ 2 10 км 3/0 1500 м
[Ci fib]
+28.4 +22.2 69 +37 +37 очень
душно
1009.6 1007.4 +35.0
15 21.08 Ю 3 9000 м 3/0 1500 м
[Ci fib]
+25.6 +22.2 82 +33 +33 очень
душно
1011.6 1009.4
18 21.08 ЮВ 2 9000 м 3/0 1500 м
[Ci fib]
+24.2 +22.2 89 +31 +31 очень
душно
1011.0 1008.9
21 21.08 ЮВ 2 9000 м 3/0 1500 м
[Ci fib]
+24.0 +21.7 87 +31 +31 очень
душно
1011.3 1009.1
00 22.08 ЮВ 2 7000 м 1/0
[Ci fib]
+25.8 +22.1 80 +33 +37 очень
душно
1012.6 1010.5 +23.0
03 22.08 В 5 10 км 5/4 600 м
[Cu hum As trans Ci fib]
+32.4 +21.5 53 +41 +46 опасность
перегрева
1011.9 1009.7
06 22.08 В 2 10 км 6/5 600 м
[Cu Sc As trans Ci fib]
+34.0 +21.7 49 +42 +51 опасность
перегрева
1009.0 1006.8
09 22.08 Ю 4 10 км 5/3 600 м
[Sc As trans Ci fib]
+32.2 +21.9 55 +41 +42 опасность
перегрева
1008.3 1006.2
12 22.08 Ю 2 10 км 4/1 600 м
[Sc As trans Ci fib]
+27.2 +21.5 71 +35 +35 очень
душно
1010.7 1008.5 +34.6
15 22.08 Ю 1 10 км 4/0
[As trans Ci fib]
+26.4 +21.6 75 +34 +34 очень
душно
1012.2 1010.0
18 22.08 ЮВ 1 10 км 4/0
[As trans Ci fib]
+25.0 +21.3 80 +32 +32 очень
душно
1011.3 1009.2
21 22.08 С 2 8000 м 4/0
[As trans Ci fib]
+23.8 +21.2 85 +30 +30 очень
душно
1011.3 1009.1
00 23.08 ЮВ 2 6000 м 3/0
[As trans Ci fib]
+25.3 +21.5 79 +32 +35 очень
душно
1012.4 1010.3 +23.0
03 23.08 В 3 10 км 4/3 600 м
[Cu hum As trans Ci fib]
+32.4 +22.1 55 +41 +51 опасность
перегрева
1011.9 1009.7
06 23.08 ЮВ 4 10 км 8/4 600 м
[Cu Sc As trans Ci fib]
+34.4 +20.6 45 +41 +46 опасность
перегрева
1008.8 1006.7
09 23.08 В 5 10 км 6/4 600 м
[Cu Sc As trans Ci fib]
+33.6 +21.6 50 +42 +43 опасность
перегрева
1008.2 1006.1
12 23.08 ЮВ 2 9000 м 3/1 600 м
[Sc As trans Ci fib]
+28.4 +21.9 68 +37 +37 очень
душно
1010.1 1007.9 +35.0
15 23.08 Ю 1 9000 м 3/0
[As trans Ci fib]
+26.2 +22.3 79 +34 +34 очень
душно
1011.5 1009.3
18 23.08 СЗ 1 7000 м 3/0
[As trans Ci fib]
+25.0 +22.2 84 +32 +32 очень
душно
1010.7 1008.5
21 23.08 штиль 0 6000 м 4/0
[As trans Ci fib]
+24.0 +22.0 89 +31 +31 очень
душно
1010.2 1008.0
00 24.08 ЮВ 2 7000 м 1/0
[Ci fib]
+25.8 +22.1 80 +33 +37 очень
душно
1012.6 1010.5 +23.0
03 24.08 В 3 10 км 6/1 600 м
[Sc Ac trans Ci fib]
+31.0 +22.4 60 +40 +51 опасность
солнечного
удара
1011.6 1009.4
06 24.08 Ю 4 10 км 8/5 600 м
[Sc As trans Ci fib]
+31.4 +23.4 63 +42 +46 опасность
перегрева
1008.7 1006.6
09 24.08 ЮЗ 3 10 км 8/3 600 м
[Sc As trans Ci fib]
+30.6 +23.8 67 +42 +43 опасность
перегрева
1008.1 1005.9
12 24.08 Ю 3 10 км 6/1 600 м
[Sc As trans Ci fib]
+27.2 +23.0 78 +36 +36 очень
душно
1010.2 1008.0 +33.0
15 24.08 штиль 0 10 км 9/0
[As trans Ci fib]
+26.8 +23.5 82 +36 +36 очень
душно
1011.0 1008.9
18 24.08 Ю 2 10 км 8/0
[As trans Ci fib]
+26.4 +23.1 82 +35 +35 очень
душно
1010.1 1008.0
21 24.08 З 1 10 км 5/0
[As trans Ci fib]
+25.6 +23.1 86 +34 +34 очень
душно
1009.7 1007.5
00 25.08 З 3 8000 м 6/0
[Ac trans Ci fib]
+26.2 +23.1 83 +35 +37 очень
душно
1011.9 1009.7 +24.9
03 25.08 Ю 1 10 км 6/3 600 м
[Sc As trans Ci fib]
+31.6 +22.7 59 +41 +53 опасность
перегрева
1011.5 1009.3
06 25.08 В 4 10 км 6/5 600 м
[Sc As trans Ci fib]
+34.0 +21.8 49 +42 +47 опасность
перегрева
1008.1 1006.0
09 25.08 В 4 10 км 5/3 600 м
[Sc As trans Ci fib]
+34.0 +21.8 49 +42 +43 опасность
перегрева
1007.0 1004.8
12 25.08 Ю 2 10 км 4/3 600 м
[Cu hum As trans Ci fib]
+27.8 +23.1 76 +37 +37 очень
душно
1009.5 1007.3 +34.8
15 25.08 штиль 0 10 км 4/3 600 м
[Cu hum As trans Ci fib]
+26.1 +22.5 81 +34 +34 очень
душно
1011.0 1008.7
18 25.08 ЮЗ 1 10 км 4/3 600 м
[Cu hum As trans Ci fib]
+24.6 +22.2 87 +32 +32 очень
душно
1010.8 1008.5

 

Местоположение метеостанции Банджармасин (Индонезия): широта -3.43 долгота 114.75 высота над уровнем моря 20 м.

В архиве по умолчанию представлена погода в Банджармасине за последнюю неделю. Архивные данные за месяц целиком и за предыдущие месяцы, начиная с января 2011 года, Вы можете получить, выбрав интересующий диапазон дат из раскрывающегося списка и нажав кнопку "Ввод!".


*Определитесь, кто Вы:
робот инопланетянин человек

Внимание! Время в таблицах - всемирное. Для получения местного времени необходимо прибавить поправку, которая равна 8 ч.

Смотрите также архив погоды в соседних городах и на ближайших метеорологических станциях:

Погода в Котабару (Индонезия) (162 км)
Погода в Муаратевехе (Индонезия) (276 км)
Погода в Паоанкарая (Индонезия) (283 км)
Погода в Баликпапане (Индонезия) (339 км)
Погода в Пангкалан-Буне (Индонезия) (348 км)
Погода в Сангкапуре (Индонезия) (357 км)
Погода в Самаринде (Индонезия) (411 км)
Погода в Калиянджете (Индонезия) (412 км)
Погода в Сурабая Геданган (Индонезия) (437 км)
Погода в Нангапинохе (Индонезия) (476 км)

Пояснения к столбцам:

Ветер - указаны скорость ветра в м/с - средняя за 10 мин, порывы в срок и между сроками (в фигурных скобках) и направление, откуда дует ветер: С - северный, СВ - северо-восточный, В - восточный, ЮВ - юго-восточный, Ю - южный, ЮЗ - юго-западный, З - западный, СЗ - северо-западный.
Видимость - горизонтальная дальность видимости в метрах или километрах. При видимости от 1 до 10 км при отсутствии осадков обычно наблюдается дымка, при ухудшении видимости до 1 км и менее - туман. В сухую погоду видимость может ухудшаться дымом, пылью или мглою.
Явления - указаны атмосферные явления, наблюдавшиеся в срок или в последний час перед сроком; фигурными скобками обозначены явления, наблюдавшиеся между сроками (за 1-3 часа до срока); квадратными скобками обозначены град или гололедные отложения с указанием их диаметра в мм.
Облачность - указаны через наклонную черту общая и нижняя облачность в баллах и высота нижней границы облаков в метрах; квадратными скобками обозначены формы облаков: Ci - перистые, Cs - перисто-слоистые, Cc - перисто-кучевые, Ac - высококучевые, As - высокослоистые, Sc - слоисто-кучевые, Ns - слоисто-дождевые, Cu - кучевые, Cb - кучево-дождевые. Подробнее классификацию облаков см. в Атласе облаков (PDF).
T - Температура воздуха - температура, измеренная на высоте 2 м над землей.
Td - Температура точки росы - температура, при понижении до которой содержащийся в воздухе водяной пар достигнет насыщения.
f - Относительная влажность воздуха - влажноcть воздуха, измеренная на высоте 2 м над землей.
Te - Эффективная температура - температура, которую ощущает одетый по сезону человек в тени. Характеристика душности погоды. При расчете учитывается влияние влажности воздуха и скорости ветра на теплоощущения человека.
Tes - Эффективная температура на солнце - температура, которую ощущает человек, с поправкой на солнечный нагрев. Характеристика знойности погоды. Зависит от высоты солнца над горизонтом, облачности и скорости ветра. Ночью, в пасмурную погоду, а также при ветре 12 м/с и более поправка равна нулю.
P - Атмосферное давление - приведенное к уровню моря атмосферное давление.
Po - Атмосферное давление - измеренное на уровне метеостанции атмосферное давление.
Tmin - Минимальная температура - минимум температуры воздуха на высоте 2 м над землей.
Tmax - Максимальная температура - максимум температуры воздуха на высоте 2 м над землей.
R - Количество осадков - Количество выпавших осадков за период времени, мм. При наведении курсора мыши на число - период времени, за который выпало указанное количество осадков.
R24 - Количество осадков - Количество выпавших осадков за 24 часа, мм.
S - Снежный покров - Высота снежного покрова, см. При наведении курсора мыши на число - состояние снежного покрова и степень покрытия местности в баллах.